Voltar ao catálogo

FENGYUN 1C DEB

AtivoPO
NORAD 30018·DEBRIS·🇨🇳 China

Lançado May 10, 1999 de Taiyuan Satellite Launch Center

Loading…

Próximas Passagens (próximas 24 horas)

TLE

AtualizadoSource: Space-Track

Época: Sep 14, 2026, 06:08 UTC

1 30018U 99025MT  26257.25610339  .00002290  00000-0  31223-3 0  9995
2 30018  98.7556   6.8924 0112737  50.4583 340.4757 14.75497758 44970

Acompanhe FENGYUN 1C DEB em tempo real com AllMySat

Download on the App Store